Hourly Data Report for October 02, 2017

All times are specified in Local Standard Time (LST). Add 1 hour to adjust for Daylight Saving Time where and when it is observed.

GRISE FIORD CLIMATE
NUNAVUT

76°25'22.040" N
82°54'08.020" W
44.50 m
2402351
71971
NGC

Download Data

Hourly Data (October 2017)
Hourly Data Report for October 2, 2017
Temp Definition
°C
Dew Point Temp Definition
°C
Rel Hum Definition
%
Wind Dir Definition
10's deg

Wind Spd Definition
km/h
Visibility Definition
km
Stn Press Definition
kPa
Hmdx Definition


Wind Chill Definition


Weather Definition


TIME
00:00 -6.5 -7.8 90 29 7   100.36   -10 LegendNANA
01:00 -6.6 -7.8 91 16 3   100.33   -8 LegendNANA
02:00 -6.5 -7.7 91 5 2   100.33   -7 LegendNANA
03:00 -6.6 -7.7 92 25 4   100.29   -9 LegendNANA
04:00 -6.8 -7.6 94 27 5   100.29   -9 LegendNANA
05:00 -6.9 -7.5 95 14 5   100.26   -9 LegendNANA
06:00 -6.8 -7.5 95 14 7   100.25   -10 LegendNANA
07:00 -6.8 -8.8 86 10 7   100.24   -10 LegendNANA
08:00 -7.1 -9.4 83 6 4   100.22   -9 LegendNANA
09:00 -7.2 -10.2 79 6 15   100.21   -13 LegendNANA
10:00 -7.3 -10.6 77 5 19   100.18   -14 LegendNANA
11:00 -7.2 -10.8 75 5 16   100.18   -14 LegendNANA
12:00 -7.2 -10.1 80 5 19   100.15   -14 LegendNANA
13:00 -7.3 -10.3 79 4 8   100.14   -11 LegendNANA
14:00 -7.1 -10.8 75 4 11   100.12   -12 LegendNANA
15:00 -7.2 -11.1 74 7 8   100.11   -11 LegendNANA
16:00 -7.2 -11.3 73 7 15   100.09   -13 LegendNANA
17:00 -7.3 -10.7 76 9 5   100.06   -10 LegendNANA
18:00 -7.0 -11.1 72 4 5   100.03   -10 LegendNANA
19:00 -7.3 -10.4 78 8 3   99.98   -9 LegendNANA
20:00 -7.0 -9.7 81 12 5   99.95   -10 LegendNANA
21:00 -7.3 -9.8 82 1 3   99.92   -9 LegendNANA
22:00 -7.1 -10.1 79 8 4   99.84   -9 LegendNANA
23:00 -2.8 -8.3 65 8 12   99.79   -7 LegendNANA

Notes on Data Quality.

Legend

  • E = Estimated
  • M = Missing
  • NA = Not Available
  • ‡ = Partner data that is not subject to review by the National Climate Archives
Date modified: